Simultaneous Nadir Overpasses (SNOs) Predictions

Prediction of SNOs between METOP-B and TERRA Satellite Orbit:

Table of predicted SNOs for the next 14.0 days since TLE Epoch: 6/1/2024
Index Date (METOP-B) Time (METOP-B) Lat,Lon (METOP-B) SZA (METOP-B ) Date (TERRA) Time (TERRA) Lat,Lon (TERRA) SZA (TERRA ) Distance(km) Time Diff (sec)
1 06/03/2024 00:12:52 -80.17, 17.92 121.49 06/03/2024 00:13:12 -80.16, 17.81 121.50 2.16 20
2 06/03/2024 01:03:29 80.26,-173.76 58.66 06/03/2024 01:02:29 80.27,-173.60 58.66 3.19 60
3 06/05/2024 14:43:05 -80.06, 159.30 121.96 06/05/2024 14:43:58 -80.07, 159.34 121.94 0.86 53
4 06/05/2024 15:33:39 80.24, -31.50 58.33 06/05/2024 15:33:13 80.24, -31.54 58.32 0.66 26
5 06/08/2024 06:03:51 80.16, 110.08 57.94 06/08/2024 06:03:58 80.16, 110.06 57.94 0.38 7
6 06/08/2024 06:54:27 -80.31, -80.95 121.81 06/08/2024 06:53:16 -80.31, -80.99 121.84 0.78 71
7 06/10/2024 20:34:01 80.13,-107.77 57.69 06/10/2024 20:34:41 80.13,-107.90 57.69 2.54 40
8 06/10/2024 21:24:38 -80.26, 60.91 122.11 06/10/2024 21:24:00 -80.25, 60.77 122.14 2.73 38
9 06/13/2024 11:04:13 80.01, 33.42 57.33 06/13/2024 11:05:25 80.01, 33.40 57.34 0.63 72



Historial Predications of SNOs between METOP-B and TERRA
